Regional Weather Roundup
Issued by NWS

Home | Current Version | Previous Version | Graphics & Text | Print | Product List | Glossary On
Versions: 1 2 3 4 5 6 7 8 9 10 11 12 13 14 15 16 17 18 19 20 21 22 23 24 25 26 27 28 29 30 31 32 33 34 35 36 37 38 39 40 41 42 43 44 45 46 47 48 49 50
000
ASUS43 KOAX 261102
RWRNE

WEATHER ROUNDUP FOR NEBRASKA
NATIONAL WEATHER SERVICE OMAHA NE
600 AM CDT THU MAR 26 2015

NOTES: SATELLITE DATA IS BEING USED TO AUGMENT CLOUD COVER ABOVE
       12000 FEET.
       "FAIR" INDICATES FEW OR NO CLOUDS BELOW 12,000 FEET WITH NO
       SIGNIFICANT WEATHER AND/OR OBSTRUCTIONS TO VISIBILITY.

  * THESE STATIONS DO NOT REPORT WEATHER SUCH AS RAIN...SNOW OR FOG.

NEZ001>004-019>022-054>056-261200-
NEBRASKA PANHANDLE

CITY           SKY/WX    TMP DP  RH WIND       PRES   REMARKS
SCOTTSBLUFF    CLOUDY    25  22  88 W5        30.16S WCI  19
ALLIANCE       CLOUDY    24  20  84 CALM      30.14F
CHADRON        CLOUDY    31  25  78 SW3       30.13F
KIMBALL        CLEAR     29  27  92 W12       30.13F WCI  19
SIDNEY         MOCLDY    27  23  85 W8        30.17R WCI  19
$$

NEZ057>060-069>072-079>082-261200-
SOUTHWEST NEBRASKA

CITY           SKY/WX    TMP DP  RH WIND       PRES   REMARKS
NORTH PLATTE   PTCLDY    19  15  84 CALM      30.21S
IMPERIAL         N/A     24  18  77 CALM      30.20S
MCCOOK         CLEAR     21  17  84 SW7       30.22F WCI  12
$$

NEZ005>010-023>029-035>040-094-261200-
NORTH CENTRAL NEBRASKA

CITY           SKY/WX    TMP DP  RH WIND       PRES   REMARKS
VALENTINE      CLEAR     19  16  88 SW3       30.17F
BROKEN BOW     CLEAR     16  13  88 CALM      30.20F
ORD            CLEAR     15  11  83 SW3       30.21S
$$

NEZ041-046>049-061>064-073>077-083>087-261200-
SOUTH CENTRAL NEBRASKA

CITY           SKY/WX    TMP DP  RH WIND       PRES   REMARKS
GRAND ISLAND   CLEAR     21  17  84 W8        30.23S WCI  11
HASTINGS       CLEAR     22  17  81 W6        30.23R WCI  14
HEBRON         CLEAR     28  22  81 NW3       30.24R
KEARNEY *      CLEAR     21  18  86 NW7       30.23S WCI  13
$$

NEZ011>018-030>034-042>045-261200-
NORTHEAST NEBRASKA

CITY           SKY/WX    TMP DP  RH WIND       PRES   REMARKS
NORFOLK        CLEAR     25  20  81 W8        30.20S WCI  16
ALBION         CLEAR     20  17  86 N5        30.21S WCI  14
BLAIR          CLEAR     28  22  78 W7        30.19R WCI  21
COLUMBUS *     CLEAR     23  12  63 NW7       30.23R WCI  15
TEKAMAH        CLEAR     27  21  78 W16       30.20R WCI  15
$$

NEZ050>053-065>068-078-088>093-261200-
SOUTHEAST NEBRASKA

CITY           SKY/WX    TMP DP  RH WIND       PRES   REMARKS
LINCOLN        CLEAR     25  21  85 NW3       30.23R
OMAHA EPPLEY   CLEAR     26  24  92 CALM      30.21R
FALLS CITY     CLEAR     30  26  85 NW7       30.20R WCI  23
PLATTSMOUTH    PTCLDY    27  22  83 W7        30.20R WCI  19
$$

NEZ044-045-051>053-067-261200-
OMAHA AREA

CITY           SKY/WX    TMP DP  RH WIND       PRES   REMARKS
OMAHA EPPLEY   CLEAR     26  24  92 CALM      30.21R
BLAIR          CLEAR     28  22  78 W7        30.19R WCI  21
OFFUTT AFB     CLEAR     26  22  85 NW9       30.20R WCI  17
PLATTSMOUTH    PTCLDY    27  22  83 W7        30.20R WCI  19
$$



USA.gov is the U.S. government's official web portal to all federal, state and local government web resources and services.